Saint Bonnet de Bellac- Haute Vienne - France
Donnes mto: vendredi, 30/03/2012
Date Horaire Temp. E. Hum. E. P.atmo. Pluie Vent Direction Direction Ensoleilleme Solaire P. de rose Temp au vent Rafales
30/03/2012 00:00 10,9 C 48 % 1021,7 hPa 0,0 mm 0,7 km/h (0 Bft) N-NE 22 0 min 0 W/m 0,3 C 10,9 C 4,3 km/h (1 Bft)
30/03/2012 00:10 10,6 C 48 % 1021,8 hPa 0,0 mm 0,0 km/h (0 Bft) N-NE 22 0 min 0 W/m 0,1 C 10,6 C 0,0 km/h (0 Bft)
30/03/2012 00:20 10,3 C 49 % 1021,7 hPa 0,0 mm 0,7 km/h (0 Bft) NE 45 0 min 0 W/m 0,1 C 10,3 C 0,7 km/h (0 Bft)
30/03/2012 00:30 10,1 C 49 % 1021,7 hPa 0,0 mm 0,0 km/h (0 Bft) NE 45 0 min 0 W/m -0,1 C 10,1 C 0,0 km/h (0 Bft)
30/03/2012 00:40 9,9 C 50 % 1021,7 hPa 0,0 mm 0,0 km/h (0 Bft) E-NE 67 0 min 0 W/m -0,0 C 9,9 C 0,0 km/h (0 Bft)
30/03/2012 00:50 9,8 C 50 % 1021,7 hPa 0,0 mm 0,0 km/h (0 Bft) NE 45 0 min 0 W/m -0,1 C 9,8 C 0,0 km/h (0 Bft)
30/03/2012 01:00 9,6 C 51 % 1021,7 hPa 0,0 mm 0,0 km/h (0 Bft) NE 45 0 min 0 W/m -0,0 C 9,6 C 0,0 km/h (0 Bft)
30/03/2012 01:10 9,2 C 52 % 1021,6 hPa 0,0 mm 0,0 km/h (0 Bft) NE 45 0 min 0 W/m -0,1 C 9,2 C 0,0 km/h (0 Bft)
30/03/2012 01:20 8,8 C 52 % 1021,5 hPa 0,0 mm 0,0 km/h (0 Bft) NE 45 0 min 0 W/m -0,5 C 8,8 C 0,0 km/h (0 Bft)
30/03/2012 01:30 8,6 C 53 % 1021,5 hPa 0,0 mm 0,0 km/h (0 Bft) N-NE 22 0 min 0 W/m -0,4 C 8,6 C 0,0 km/h (0 Bft)
30/03/2012 01:40 8,5 C 53 % 1021,5 hPa 0,0 mm 0,0 km/h (0 Bft) N-NE 22 0 min 0 W/m -0,5 C 8,5 C 0,0 km/h (0 Bft)
30/03/2012 01:50 8,4 C 54 % 1021,4 hPa 0,0 mm 0,0 km/h (0 Bft) N-NE 22 0 min 0 W/m -0,4 C 8,4 C 0,0 km/h (0 Bft)
30/03/2012 02:00 8,3 C 54 % 1021,4 hPa 0,0 mm 0,0 km/h (0 Bft) N-NE 22 0 min 0 W/m -0,5 C 8,3 C 0,0 km/h (0 Bft)
30/03/2012 02:10 8,2 C 55 % 1021,4 hPa 0,0 mm 0,0 km/h (0 Bft) N-NE 22 0 min 0 W/m -0,3 C 8,2 C 0,0 km/h (0 Bft)
30/03/2012 02:20 8,1 C 55 % 1021,4 hPa 0,0 mm 0,0 km/h (0 Bft) NE 45 0 min 0 W/m -0,4 C 8,1 C 0,0 km/h (0 Bft)
30/03/2012 02:30 8,0 C 56 % 1021,2 hPa 0,0 mm 0,0 km/h (0 Bft) N 360 0 min 0 W/m -0,2 C 8,0 C 0,0 km/h (0 Bft)
30/03/2012 02:40 7,8 C 56 % 1021,4 hPa 0,0 mm 0,0 km/h (0 Bft) N-NE 22 0 min 0 W/m -0,4 C 7,8 C 0,0 km/h (0 Bft)
30/03/2012 02:50 7,6 C 59 % 1021,4 hPa 0,0 mm 0,0 km/h (0 Bft) N-NE 22 0 min 0 W/m 0,1 C 7,6 C 0,0 km/h (0 Bft)
30/03/2012 03:02 7,3 C 60 % 1021,5 hPa 0,0 mm 0,0 km/h (0 Bft) N-NE 22 0 min 0 W/m 0,1 C 7,3 C 0,0 km/h (0 Bft)
30/03/2012 03:10 7,1 C 61 % 1021,5 hPa 0,0 mm 0,0 km/h (0 Bft) N-NE 22 0 min 0 W/m 0,1 C 7,1 C 0,0 km/h (0 Bft)
30/03/2012 03:20 6,9 C 61 % 1021,4 hPa 0,0 mm 0,0 km/h (0 Bft) N-NE 22 0 min 0 W/m -0,1 C 6,9 C 0,0 km/h (0 Bft)
30/03/2012 03:30 6,6 C 61 % 1021,4 hPa 0,0 mm 0,0 km/h (0 Bft) N 360 0 min 0 W/m -0,4 C 6,6 C 0,0 km/h (0 Bft)
30/03/2012 03:40 6,5 C 62 % 1021,3 hPa 0,0 mm 0,0 km/h (0 Bft) N 360 0 min 0 W/m -0,2 C 6,5 C 0,0 km/h (0 Bft)
30/03/2012 03:50 6,4 C 63 % 1021,3 hPa 0,0 mm 0,7 km/h (0 Bft) N 360 0 min 0 W/m -0,1 C 6,4 C 0,7 km/h (0 Bft)
30/03/2012 04:00 6,3 C 63 % 1021,3 hPa 0,0 mm 0,7 km/h (0 Bft) N 360 0 min 0 W/m -0,2 C 6,3 C 0,7 km/h (0 Bft)
30/03/2012 04:10 6,3 C 65 % 1021,2 hPa 0,0 mm 1,4 km/h (1 Bft) N-NE 22 0 min 0 W/m 0,2 C 6,3 C 4,0 km/h (1 Bft)
30/03/2012 04:20 5,9 C 67 % 1020,9 hPa 0,0 mm 2,5 km/h (1 Bft) N 360 0 min 0 W/m 0,3 C 5,9 C 6,1 km/h (2 Bft)
30/03/2012 04:30 5,7 C 68 % 1020,8 hPa 0,0 mm 0,7 km/h (0 Bft) N 360 0 min 0 W/m 0,3 C 5,7 C 3,6 km/h (1 Bft)
30/03/2012 04:40 5,6 C 68 % 1021,0 hPa 0,0 mm 0,0 km/h (0 Bft) N-NO 337 0 min 0 W/m 0,2 C 5,6 C 0,0 km/h (0 Bft)
30/03/2012 04:50 5,8 C 68 % 1021,0 hPa 0,0 mm 0,0 km/h (0 Bft) NE 45 0 min 0 W/m 0,4 C 5,8 C 0,0 km/h (0 Bft)
30/03/2012 05:00 5,8 C 68 % 1020,8 hPa 0,0 mm 1,8 km/h (1 Bft) N-NE 22 0 min 0 W/m 0,4 C 5,8 C 4,3 km/h (1 Bft)
30/03/2012 05:10 6,0 C 68 % 1020,7 hPa 0,0 mm 2,5 km/h (1 Bft) N 360 0 min 0 W/m 0,6 C 6,0 C 4,3 km/h (1 Bft)
30/03/2012 05:20 6,2 C 68 % 1020,7 hPa 0,0 mm 0,4 km/h (0 Bft) N-NE 22 0 min 0 W/m 0,7 C 6,2 C 3,6 km/h (1 Bft)
30/03/2012 05:30 6,2 C 68 % 1020,7 hPa 0,0 mm 0,7 km/h (0 Bft) NE 45 0 min 0 W/m 0,7 C 6,2 C 3,6 km/h (1 Bft)
30/03/2012 05:40 6,2 C 68 % 1020,8 hPa 0,0 mm 0,4 km/h (0 Bft) E 90 0 min 0 W/m 0,7 C 6,2 C 0,4 km/h (0 Bft)
30/03/2012 05:50 6,1 C 68 % 1020,7 hPa 0,0 mm 0,0 km/h (0 Bft) SE 135 0 min 0 W/m 0,6 C 6,1 C 0,0 km/h (0 Bft)
30/03/2012 06:00 5,9 C 68 % 1020,6 hPa 0,0 mm 0,0 km/h (0 Bft) NE 45 0 min 0 W/m 0,5 C 5,9 C 2,9 km/h (1 Bft)
30/03/2012 06:10 5,8 C 68 % 1020,6 hPa 0,0 mm 0,0 km/h (0 Bft) N 360 0 min 0 W/m 0,4 C 5,8 C 0,0 km/h (0 Bft)
30/03/2012 06:20 5,8 C 68 % 1020,6 hPa 0,0 mm 0,4 km/h (0 Bft) N 360 0 min 0 W/m 0,4 C 5,8 C 0,4 km/h (0 Bft)
30/03/2012 06:30 5,7 C 69 % 1020,7 hPa 0,0 mm 1,1 km/h (1 Bft) N-NE 22 0 min 0 W/m 0,5 C 5,7 C 3,6 km/h (1 Bft)
30/03/2012 06:40 5,8 C 69 % 1020,7 hPa 0,0 mm 0,0 km/h (0 Bft) N-NE 22 0 min 0 W/m 0,6 C 5,8 C 0,0 km/h (0 Bft)
30/03/2012 06:50 5,8 C 70 % 1020,6 hPa 0,0 mm 1,8 km/h (1 Bft) N-NE 22 0 min 0 W/m 0,8 C 5,8 C 4,0 km/h (1 Bft)
30/03/2012 07:00 5,8 C 70 % 1020,6 hPa 0,0 mm 4,0 km/h (1 Bft) N-NE 22 0 min 0 W/m 0,8 C 5,8 C 9,4 km/h (2 Bft)
30/03/2012 07:10 5,8 C 71 % 1020,6 hPa 0,0 mm 4,3 km/h (1 Bft) N-NE 22 0 min 0 W/m 1,0 C 5,8 C 7,6 km/h (2 Bft)
30/03/2012 07:20 5,8 C 71 % 1020,6 hPa 0,0 mm 0,4 km/h (0 Bft) N-NE 22 0 min 0 W/m 1,0 C 5,8 C 0,4 km/h (0 Bft)
30/03/2012 07:30 5,6 C 71 % 1020,6 hPa 0,0 mm 1,4 km/h (1 Bft) NE 45 0 min 0 W/m 0,8 C 5,6 C 4,3 km/h (1 Bft)
30/03/2012 07:40 5,7 C 72 % 1020,6 hPa 0,0 mm 2,5 km/h (1 Bft) NE 45 0 min 0 W/m 1,1 C 5,7 C 6,5 km/h (2 Bft)
30/03/2012 07:50 5,7 C 72 % 1020,6 hPa 0,0 mm 0,7 km/h (0 Bft) N 360 2 min 0 W/m 1,1 C 5,7 C 3,6 km/h (1 Bft)
30/03/2012 08:00 5,7 C 72 % 1020,6 hPa 0,0 mm 2,5 km/h (1 Bft) N 360 2 min 0 W/m 1,1 C 5,7 C 2,5 km/h (1 Bft)
30/03/2012 08:10 5,6 C 72 % 1020,6 hPa 0,0 mm 2,5 km/h (1 Bft) N 360 2 min 0 W/m 1,0 C 5,6 C 2,5 km/h (1 Bft)
30/03/2012 08:20 5,5 C 73 % 1020,7 hPa 0,0 mm 0,0 km/h (0 Bft) N 360 2 min 0 W/m 1,1 C 5,5 C 0,0 km/h (0 Bft)
30/03/2012 08:30 5,4 C 73 % 1020,8 hPa 0,0 mm 0,0 km/h (0 Bft) N-NE 22 2 min 0 W/m 1,0 C 5,4 C 0,0 km/h (0 Bft)
30/03/2012 08:40 5,8 C 74 % 1020,9 hPa 0,0 mm 1,8 km/h (1 Bft) N-NE 22 2 min 0 W/m 1,5 C 5,8 C 4,0 km/h (1 Bft)
30/03/2012 08:50 6,4 C 75 % 1020,9 hPa 0,0 mm 0,4 km/h (0 Bft) N-NE 22 2 min 0 W/m 2,3 C 6,4 C 0,4 km/h (0 Bft)
30/03/2012 09:00 7,2 C 75 % 1020,8 hPa 0,0 mm 1,4 km/h (1 Bft) N-NE 22 2 min 0 W/m 3,1 C 7,2 C 4,0 km/h (1 Bft)
30/03/2012 09:10 8,0 C 74 % 1020,8 hPa 0,0 mm 0,0 km/h (0 Bft) N-NE 22 2 min 0 W/m 3,7 C 8,0 C 0,0 km/h (0 Bft)
30/03/2012 09:20 8,9 C 72 % 1021,0 hPa 0,0 mm 5,0 km/h (1 Bft) NE 45 2 min 0 W/m 4,1 C 8,5 C 5,0 km/h (1 Bft)
30/03/2012 09:30 9,6 C 72 % 1020,9 hPa 0,0 mm 3,2 km/h (1 Bft) NE 45 2 min 0 W/m 4,8 C 9,6 C 6,5 km/h (2 Bft)
30/03/2012 09:40 10,3 C 69 % 1021,0 hPa 0,0 mm 5,0 km/h (1 Bft) NE 45 2 min 0 W/m 4,9 C 10,3 C 9,0 km/h (2 Bft)
30/03/2012 09:50 10,9 C 69 % 1021,1 hPa 0,0 mm 1,4 km/h (1 Bft) E-NE 67 2 min 0 W/m 5,4 C 10,9 C 4,3 km/h (1 Bft)
30/03/2012 10:00 11,6 C 68 % 1021,1 hPa 0,0 mm 7,6 km/h (2 Bft) NE 45 2 min 0 W/m 5,9 C 11,6 C 11,5 km/h (2 Bft)
30/03/2012 10:10 12,4 C 66 % 1021,0 hPa 0,0 mm 4,7 km/h (1 Bft) NE 45 2 min 0 W/m 6,2 C 12,4 C 8,6 km/h (2 Bft)
30/03/2012 10:20 13,1 C 63 % 1021,3 hPa 0,0 mm 6,5 km/h (2 Bft) N 360 2 min 0 W/m 6,2 C 13,1 C 9,0 km/h (2 Bft)
30/03/2012 10:30 13,5 C 63 % 1021,2 hPa 0,0 mm 5,4 km/h (2 Bft) E 90 2 min 0 W/m 6,6 C 13,5 C 6,1 km/h (2 Bft)
30/03/2012 10:40 14,0 C 60 % 1021,2 hPa 0,0 mm 4,7 km/h (1 Bft) E-NE 67 2 min 0 W/m 6,4 C 14,0 C 4,7 km/h (1 Bft)
30/03/2012 10:50 14,3 C 60 % 1021,3 hPa 0,0 mm 6,5 km/h (2 Bft) N-NE 22 2 min 0 W/m 6,6 C 14,3 C 6,5 km/h (2 Bft)
30/03/2012 11:00 14,8 C 60 % 1021,3 hPa 0,0 mm 4,7 km/h (1 Bft) E-NE 67 2 min 0 W/m 7,1 C 14,8 C 4,7 km/h (1 Bft)
30/03/2012 11:10 15,4 C 59 % 1021,3 hPa 0,0 mm 3,6 km/h (1 Bft) N-NE 22 2 min 0 W/m 7,4 C 15,4 C 3,6 km/h (1 Bft)
30/03/2012 11:20 15,8 C 58 % 1021,3 hPa 0,0 mm 9,0 km/h (2 Bft) N 360 2 min 0 W/m 7,6 C 15,8 C 16,2 km/h (3 Bft)
30/03/2012 11:30 16,3 C 57 % 1021,4 hPa 0,0 mm 8,3 km/h (2 Bft) N 360 2 min 0 W/m 7,8 C 16,3 C 10,4 km/h (2 Bft)
30/03/2012 11:40 16,8 C 56 % 1021,4 hPa 0,0 mm 6,1 km/h (2 Bft) NE 45 2 min 0 W/m 8,0 C 16,8 C 9,4 km/h (2 Bft)
30/03/2012 11:50 17,2 C 55 % 1021,5 hPa 0,0 mm 9,0 km/h (2 Bft) E-NE 67 2 min 0 W/m 8,1 C 17,2 C 12,6 km/h (3 Bft)
30/03/2012 12:00 17,4 C 54 % 1021,4 hPa 0,0 mm 10,8 km/h (2 Bft) N-NE 22 2 min 0 W/m 8,0 C 17,4 C 18,0 km/h (3 Bft)
30/03/2012 12:10 17,8 C 54 % 1021,4 hPa 0,0 mm 8,3 km/h (2 Bft) N-NE 22 2 min 0 W/m 8,4 C 17,8 C 11,5 km/h (2 Bft)
30/03/2012 12:20 18,2 C 53 % 1021,4 hPa 0,0 mm 8,3 km/h (2 Bft) NE 45 2 min 0 W/m 8,5 C 18,2 C 11,2 km/h (2 Bft)
30/03/2012 12:30 18,4 C 52 % 1021,4 hPa 0,0 mm 9,4 km/h (2 Bft) E-NE 67 2 min 0 W/m 8,4 C 18,4 C 11,9 km/h (2 Bft)
30/03/2012 12:40 18,5 C 51 % 1021,3 hPa 0,0 mm 13,7 km/h (3 Bft) N-NE 22 2 min 0 W/m 8,2 C 18,5 C 14,8 km/h (3 Bft)
30/03/2012 12:50 18,2 C 52 % 1021,3 hPa 0,0 mm 5,0 km/h (1 Bft) E-NE 67 2 min 0 W/m 8,2 C 18,2 C 6,1 km/h (2 Bft)
30/03/2012 13:00 17,9 C 53 % 1021,3 hPa 0,0 mm 6,5 km/h (2 Bft) N-NE 22 2 min 0 W/m 8,2 C 17,9 C 20,2 km/h (4 Bft)
30/03/2012 13:10 18,1 C 52 % 1021,1 hPa 0,0 mm 12,2 km/h (2 Bft) N-NE 22 2 min 0 W/m 8,1 C 18,1 C 15,1 km/h (3 Bft)
30/03/2012 13:20 18,1 C 53 % 1021,1 hPa 0,0 mm 8,3 km/h (2 Bft) NE 45 2 min 0 W/m 8,4 C 18,1 C 15,8 km/h (3 Bft)
30/03/2012 13:30 18,3 C 54 % 1021,1 hPa 0,0 mm 1,1 km/h (1 Bft) NE 45 2 min 0 W/m 8,8 C 18,3 C 1,1 km/h (1 Bft)
30/03/2012 13:40 18,5 C 52 % 1021,2 hPa 0,0 mm 10,8 km/h (2 Bft) N-NE 22 2 min 0 W/m 8,5 C 18,5 C 10,8 km/h (2 Bft)
30/03/2012 13:50 18,8 C 51 % 1021,2 hPa 0,0 mm 8,3 km/h (2 Bft) NE 45 2 min 0 W/m 8,4 C 18,8 C 10,8 km/h (2 Bft)
30/03/2012 14:00 19,1 C 51 % 1021,1 hPa 0,0 mm 11,9 km/h (2 Bft) N-NE 22 2 min 0 W/m 8,7 C 19,1 C 16,6 km/h (3 Bft)
30/03/2012 14:10 19,1 C 50 % 1021,0 hPa 0,0 mm 9,4 km/h (2 Bft) E 90 2 min 0 W/m 8,4 C 19,1 C 12,6 km/h (3 Bft)
30/03/2012 14:20 19,1 C 50 % 1021,0 hPa 0,0 mm 11,5 km/h (2 Bft) E-NE 67 2 min 0 W/m 8,4 C 19,1 C 16,6 km/h (3 Bft)
30/03/2012 14:30 19,1 C 51 % 1021,0 hPa 0,0 mm 5,8 km/h (2 Bft) NE 45 2 min 0 W/m 8,7 C 19,1 C 6,1 km/h (2 Bft)
30/03/2012 14:40 19,2 C 50 % 1020,8 hPa 0,0 mm 12,6 km/h (3 Bft) N-NE 22 2 min 0 W/m 8,5 C 19,2 C 20,2 km/h (4 Bft)
30/03/2012 14:50 19,1 C 51 % 1020,7 hPa 0,0 mm 15,5 km/h (3 Bft) N 360 2 min 0 W/m 8,7 C 19,1 C 21,2 km/h (4 Bft)
30/03/2012 15:00 18,9 C 51 % 1020,7 hPa 0,0 mm 8,3 km/h (2 Bft) E-NE 67 2 min 0 W/m 8,5 C 18,9 C 10,8 km/h (2 Bft)
30/03/2012 15:10 18,9 C 50 % 1020,6 hPa 0,0 mm 11,9 km/h (2 Bft) N-NE 22 2 min 0 W/m 8,2 C 18,9 C 14,4 km/h (3 Bft)
30/03/2012 15:20 18,9 C 50 % 1020,2 hPa 0,0 mm 11,5 km/h (2 Bft) E-NE 67 2 min 0 W/m 8,2 C 18,9 C 12,6 km/h (3 Bft)
30/03/2012 15:30 19,1 C 50 % 1020,1 hPa 0,0 mm 13,7 km/h (3 Bft) N 360 2 min 0 W/m 8,4 C 19,1 C 19,4 km/h (3 Bft)
30/03/2012 15:40 18,9 C 51 % 1020,1 hPa 0,0 mm 8,6 km/h (2 Bft) NE 45 2 min 0 W/m 8,5 C 18,9 C 14,8 km/h (3 Bft)
30/03/2012 15:50 18,9 C 51 % 1019,9 hPa 0,0 mm 11,2 km/h (2 Bft) N 360 2 min 0 W/m 8,5 C 18,9 C 17,6 km/h (3 Bft)
30/03/2012 16:00 18,9 C 50 % 1019,8 hPa 0,0 mm 10,8 km/h (2 Bft) N-NE 22 2 min 0 W/m 8,2 C 18,9 C 16,6 km/h (3 Bft)
30/03/2012 16:10 18,8 C 49 % 1019,6 hPa 0,0 mm 14,4 km/h (3 Bft) N-NE 22 2 min 0 W/m 7,9 C 18,8 C 20,2 km/h (4 Bft)
30/03/2012 16:20 18,9 C 51 % 1019,4 hPa 0,0 mm 8,6 km/h (2 Bft) E 90 2 min 0 W/m 8,5 C 18,9 C 14,0 km/h (3 Bft)
30/03/2012 16:30 18,9 C 50 % 1019,3 hPa 0,0 mm 13,3 km/h (3 Bft) N-NE 22 2 min 0 W/m 8,2 C 18,9 C 15,1 km/h (3 Bft)
30/03/2012 16:40 18,9 C 50 % 1019,3 hPa 0,0 mm 10,4 km/h (2 Bft) NE 45 2 min 0 W/m 8,2 C 18,9 C 10,4 km/h (2 Bft)
30/03/2012 16:50 18,8 C 50 % 1019,1 hPa 0,0 mm 12,6 km/h (3 Bft) NE 45 2 min 0 W/m 8,2 C 18,8 C 19,8 km/h (3 Bft)
30/03/2012 17:00 18,8 C 50 % 1018,9 hPa 0,0 mm 9,7 km/h (2 Bft) NE 45 2 min 0 W/m 8,2 C 18,8 C 14,4 km/h (3 Bft)
30/03/2012 17:10 18,8 C 50 % 1018,9 hPa 0,0 mm 8,6 km/h (2 Bft) N-NE 22 2 min 0 W/m 8,2 C 18,8 C 10,8 km/h (2 Bft)
30/03/2012 17:20 18,8 C 51 % 1018,9 hPa 0,0 mm 11,9 km/h (2 Bft) N-NE 22 2 min 0 W/m 8,4 C 18,8 C 17,3 km/h (3 Bft)
30/03/2012 17:30 18,8 C 49 % 1018,7 hPa 0,0 mm 18,0 km/h (3 Bft) N-NE 22 2 min 0 W/m 7,9 C 18,8 C 26,3 km/h (4 Bft)
30/03/2012 17:40 18,8 C 50 % 1018,7 hPa 0,0 mm 8,6 km/h (2 Bft) NE 45 2 min 0 W/m 8,2 C 18,8 C 15,8 km/h (3 Bft)
30/03/2012 17:50 18,7 C 50 % 1018,5 hPa 0,0 mm 10,8 km/h (2 Bft) NE 45 2 min 0 W/m 8,1 C 18,7 C 13,0 km/h (3 Bft)
30/03/2012 18:00 18,6 C 51 % 1018,3 hPa 0,0 mm 4,7 km/h (1 Bft) N-NE 22 2 min 0 W/m 8,3 C 18,6 C 4,7 km/h (1 Bft)
30/03/2012 18:10 18,6 C 50 % 1018,4 hPa 0,0 mm 8,3 km/h (2 Bft) NE 45 2 min 0 W/m 8,0 C 18,6 C 12,6 km/h (3 Bft)
30/03/2012 18:20 18,6 C 51 % 1018,3 hPa 0,0 mm 6,5 km/h (2 Bft) NE 45 2 min 0 W/m 8,3 C 18,6 C 11,5 km/h (2 Bft)
30/03/2012 18:30 18,5 C 50 % 1018,2 hPa 0,0 mm 11,9 km/h (2 Bft) N-NE 22 2 min 0 W/m 7,9 C 18,5 C 13,3 km/h (3 Bft)
30/03/2012 18:40 18,4 C 49 % 1018,2 hPa 0,0 mm 12,2 km/h (2 Bft) N-NE 22 2 min 0 W/m 7,5 C 18,4 C 14,4 km/h (3 Bft)
30/03/2012 18:50 18,3 C 49 % 1018,2 hPa 0,0 mm 8,3 km/h (2 Bft) NE 45 2 min 0 W/m 7,4 C 18,3 C 11,5 km/h (2 Bft)
30/03/2012 19:00 18,2 C 49 % 1018,2 hPa 0,0 mm 12,2 km/h (2 Bft) N 360 2 min 0 W/m 7,3 C 18,2 C 18,0 km/h (3 Bft)
30/03/2012 19:10 18,1 C 49 % 1018,2 hPa 0,0 mm 8,3 km/h (2 Bft) NE 45 2 min 0 W/m 7,2 C 18,1 C 10,4 km/h (2 Bft)
30/03/2012 19:20 17,9 C 50 % 1018,3 hPa 0,0 mm 7,9 km/h (2 Bft) N-NE 22 2 min 0 W/m 7,3 C 17,9 C 11,9 km/h (2 Bft)
30/03/2012 19:30 17,7 C 50 % 1018,3 hPa 0,0 mm 9,0 km/h (2 Bft) N-NE 22 2 min 0 W/m 7,1 C 17,7 C 10,1 km/h (2 Bft)
30/03/2012 19:40 17,4 C 50 % 1018,2 hPa 0,0 mm 9,4 km/h (2 Bft) NE 45 2 min 0 W/m 6,9 C 17,4 C 16,9 km/h (3 Bft)
30/03/2012 19:50 17,1 C 51 % 1018,2 hPa 0,0 mm 7,9 km/h (2 Bft) E-NE 67 2 min 0 W/m 6,9 C 17,1 C 13,0 km/h (3 Bft)
30/03/2012 20:00 16,7 C 52 % 1018,1 hPa 0,0 mm 2,5 km/h (1 Bft) NE 45 2 min 0 W/m 6,8 C 16,7 C 4,3 km/h (1 Bft)
30/03/2012 20:10 16,3 C 53 % 1018,1 hPa 0,0 mm 3,2 km/h (1 Bft) NE 45 2 min 0 W/m 6,7 C 16,3 C 3,6 km/h (1 Bft)
30/03/2012 20:20 15,8 C 54 % 1018,1 hPa 0,0 mm 2,5 km/h (1 Bft) NE 45 0 min 0 W/m 6,5 C 15,8 C 4,3 km/h (1 Bft)
30/03/2012 20:30 15,4 C 55 % 1018,1 hPa 0,0 mm 0,0 km/h (0 Bft) NE 45 0 min 0 W/m 6,4 C 15,4 C 1,4 km/h (1 Bft)
30/03/2012 20:40 14,8 C 56 % 1018,0 hPa 0,0 mm 2,5 km/h (1 Bft) N-NE 22 0 min 0 W/m 6,1 C 14,8 C 4,0 km/h (1 Bft)
30/03/2012 20:50 14,5 C 57 % 1017,9 hPa 0,0 mm 1,1 km/h (1 Bft) N-NE 22 0 min 0 W/m 6,1 C 14,5 C 1,1 km/h (1 Bft)
30/03/2012 21:00 14,1 C 58 % 1018,0 hPa 0,0 mm 1,1 km/h (1 Bft) N-NE 22 0 min 0 W/m 6,0 C 14,1 C 4,0 km/h (1 Bft)
30/03/2012 21:10 13,9 C 59 % 1017,9 hPa 0,0 mm 3,6 km/h (1 Bft) NE 45 0 min 0 W/m 6,0 C 13,9 C 7,2 km/h (2 Bft)
30/03/2012 21:20 13,8 C 60 % 1018,0 hPa 0,0 mm 2,2 km/h (1 Bft) NE 45 0 min 0 W/m 6,2 C 13,8 C 4,3 km/h (1 Bft)
30/03/2012 21:30 13,5 C 60 % 1018,0 hPa 0,0 mm 1,8 km/h (1 Bft) NE 45 0 min 0 W/m 5,9 C 13,5 C 4,0 km/h (1 Bft)
30/03/2012 21:40 13,4 C 61 % 1018,0 hPa 0,0 mm 1,8 km/h (1 Bft) NE 45 0 min 0 W/m 6,0 C 13,4 C 3,6 km/h (1 Bft)
30/03/2012 21:50 13,3 C 61 % 1017,9 hPa 0,0 mm 4,0 km/h (1 Bft) NE 45 0 min 0 W/m 5,9 C 13,3 C 4,3 km/h (1 Bft)
30/03/2012 22:00 13,1 C 62 % 1017,8 hPa 0,0 mm 3,6 km/h (1 Bft) NE 45 0 min 0 W/m 6,0 C 13,1 C 4,3 km/h (1 Bft)
30/03/2012 22:10 12,9 C 62 % 1017,9 hPa 0,0 mm 2,2 km/h (1 Bft) NE 45 0 min 0 W/m 5,8 C 12,9 C 4,0 km/h (1 Bft)
30/03/2012 22:20 12,6 C 62 % 1017,8 hPa 0,0 mm 1,4 km/h (1 Bft) NE 45 0 min 0 W/m 5,5 C 12,6 C 3,6 km/h (1 Bft)
30/03/2012 22:30 12,4 C 63 % 1017,8 hPa 0,0 mm 0,0 km/h (0 Bft) NE 45 0 min 0 W/m 5,6 C 12,4 C 2,9 km/h (1 Bft)
30/03/2012 22:40 12,1 C 64 % 1017,7 hPa 0,0 mm 2,5 km/h (1 Bft) NE 45 0 min 0 W/m 5,5 C 12,1 C 4,0 km/h (1 Bft)
30/03/2012 22:50 11,9 C 64 % 1017,7 hPa 0,0 mm 0,7 km/h (0 Bft) NE 45 0 min 0 W/m 5,3 C 11,9 C 3,6 km/h (1 Bft)
30/03/2012 23:00 11,6 C 64 % 1017,6 hPa 0,0 mm 0,4 km/h (0 Bft) N-NE 22 0 min 0 W/m 5,0 C 11,6 C 2,9 km/h (1 Bft)
30/03/2012 23:10 11,2 C 66 % 1017,4 hPa 0,0 mm 1,8 km/h (1 Bft) N-NE 22 0 min 0 W/m 5,1 C 11,2 C 3,2 km/h (1 Bft)
30/03/2012 23:20 11,1 C 67 % 1017,4 hPa 0,0 mm 1,8 km/h (1 Bft) N 360 0 min 0 W/m 5,2 C 11,1 C 4,0 km/h (1 Bft)
30/03/2012 23:30 10,8 C 67 % 1017,4 hPa 0,0 mm 3,2 km/h (1 Bft) NE 45 0 min 0 W/m 4,9 C 10,8 C 4,0 km/h (1 Bft)
30/03/2012 23:40 10,8 C 68 % 1017,3 hPa 0,0 mm 1,8 km/h (1 Bft) NE 45 0 min 0 W/m 5,1 C 10,8 C 3,6 km/h (1 Bft)
30/03/2012 23:50 10,8 C 68 % 1017,2 hPa 0,0 mm 0,0 km/h (0 Bft) NE 45 0 min 0 W/m 5,1 C 10,8 C 0,0 km/h (0 Bft)
_ Min-Heure 08:30 00:10 23:50 - 23:50 - - - - 01:40 08:30 23:50
Minimum _ 5,4 C 48 % 1017,2 hPa - 0,0 km/h (0 Bft) - - - - -0,5 C 5,4 C 0,0 km/h (0 Bft)
_ Max-Heure 14:40 09:00 00:10 23:50 17:30 - - 20:10 23:50 13:30 14:40 17:30
Maximum _ 19,2 C 75 % 1021,8 hPa 0,0 mm 18,0 km/h
N-NE (3 Bft)
- - 2 min 0 W/m 8,8 C 19,2 C 26,3 km/h
N-NE (4 Bft)
Moyenne _ 12,6 C 59 % 1020,1 hPa #0,0 mm 4,6 km/h (1 Bft) N-NE - #2:30 h 0 W/m 4,6 C 12,6 C 6,8 km/h (2 Bft)
Saint Bonnet de Bellac- Haute Vienne - France